Location: Colebrook
(42.0017°N, 73.0973°W)
Time: 04:30:27
(UTC-04:00)

Tiros 1 - All Passes

Search period start: 21 October 2021 00:00
Search period end: 31 October 2021 00:00
Orbit: 630 x 663 km, 48.4° (Epoch: 21 October)

Date Brightness Start Highest point End Pass type
(mag) Time Alt. Az. Time Alt. Az. Time Alt. Az.
21 Oct - 10:19:19 10° S 10:22:11 16° SE 10:25:01 10° E daylight
21 Oct - 11:59:01 10° SW 12:03:46 72° SSE 12:08:30 10° ENE daylight
21 Oct - 13:41:39 10° W 13:46:12 44° NNW 13:50:44 10° ENE daylight
21 Oct - 15:24:38 10° WNW 15:29:05 40° N 15:33:30 10° ENE daylight
21 Oct - 17:06:57 10° WNW 17:11:40 86° NNE 17:16:19 10° ESE daylight
21 Oct - 18:49:50 10° W 18:53:26 22° SW 18:57:00 10° S visible
22 Oct - 10:43:26 10° SSW 10:47:43 33° SE 10:51:59 10° ENE daylight
22 Oct - 12:24:59 10° WSW 12:29:44 67° NNW 12:34:27 10° ENE daylight
22 Oct - 14:08:02 10° WNW 14:12:28 38° N 14:16:51 10° ENE daylight
22 Oct - 15:50:41 10° WNW 15:55:18 51° NNE 15:59:51 10° E daylight
22 Oct - 17:33:00 10° WNW 17:37:32 50° SW 17:42:01 10° SE daylight
23 Oct - 09:29:20 10° SSE 09:31:55 14° SE 09:34:29 10° E daylight
23 Oct - 11:08:43 10° SW 11:13:27 67° SSE 11:18:11 10° ENE daylight
23 Oct - 12:51:17 10° W 12:55:52 45° NNW 13:00:25 10° ENE daylight
23 Oct - 14:34:17 10° WNW 14:38:45 39° N 14:43:09 10° ENE daylight
23 Oct - 16:16:38 10° WNW 16:21:22 81° NNE 16:26:02 10° ESE daylight
23 Oct - 17:59:25 10° W 18:03:11 24° SW 18:06:54 10° S daylight
24 Oct - 09:53:14 10° SSW 09:57:26 31° SE 10:01:37 10° ENE daylight
24 Oct - 11:34:38 10° WSW 11:39:24 70° NNW 11:44:09 10° ENE daylight
24 Oct - 13:17:39 10° WNW 13:22:07 38° N 13:26:32 10° ENE daylight
24 Oct - 15:00:21 10° WNW 15:04:58 49° NNE 15:09:31 10° E daylight
24 Oct - 16:42:39 10° WNW 16:47:15 55° SW 16:51:46 10° SE daylight
24 Oct - 18:27:45 10° WSW 18:28:37 10° SW 18:29:29 10° SW visible
25 Oct - 08:39:25 10° SSE 08:41:39 13° SE 08:43:52 10° ESE daylight
25 Oct - 10:18:25 10° SW 10:23:09 63° SSE 10:27:52 10° ENE daylight
25 Oct - 12:00:54 10° W 12:05:31 47° NNW 12:10:07 10° ENE daylight
25 Oct - 13:43:56 10° WNW 13:48:24 39° N 13:52:48 10° ENE daylight
25 Oct - 15:26:18 10° WNW 15:31:02 77° NNE 15:35:43 10° ESE daylight
25 Oct - 17:09:01 10° W 17:12:55 26° SW 17:16:47 10° SSE daylight
26 Oct - 09:03:02 10° SSW 09:07:09 29° SE 09:11:14 10° E daylight
26 Oct - 10:44:17 10° WSW 10:49:05 74° NNW 10:53:51 10° ENE daylight
26 Oct - 12:27:17 10° WNW 12:31:45 38° N 12:36:12 10° ENE daylight
26 Oct - 14:10:01 10° WNW 14:14:38 48° NNE 14:19:10 10° E daylight
26 Oct - 15:52:18 10° WNW 15:56:57 59° SW 16:01:31 10° SE daylight
26 Oct - 17:36:43 10° WSW 17:38:22 12° SW 17:40:01 10° SSW daylight
27 Oct - 07:49:36 10° SSE 07:51:23 12° SE 07:53:10 10° ESE daylight
27 Oct - 09:28:08 10° SW 09:32:51 58° SE 09:37:32 10° ENE daylight
27 Oct - 11:10:31 10° W 11:15:11 49° NNW 11:19:48 10° ENE daylight
27 Oct - 12:53:34 10° WNW 12:58:02 38° N 13:02:28 10° ENE daylight
27 Oct - 14:35:59 10° WNW 14:40:44 73° NNE 14:45:24 10° ESE daylight
27 Oct - 16:18:36 10° WNW 16:22:38 29° SW 16:26:38 10° SSE daylight
28 Oct - 08:12:52 10° SSW 08:16:52 27° SE 08:20:51 10° E daylight
28 Oct - 09:53:56 10° WSW 09:58:44 78° NNW 10:03:32 10° ENE daylight
28 Oct - 11:36:54 10° WNW 11:41:24 39° N 11:45:52 10° ENE daylight
28 Oct - 13:19:41 10° WNW 13:24:17 46° NNE 13:28:49 10° E daylight
28 Oct - 15:01:57 10° WNW 15:06:39 64° SSW 15:11:16 10° SE daylight
28 Oct - 16:45:58 10° WSW 16:48:07 13° SW 16:50:16 10° SSW daylight
29 Oct - 07:00:01 10° SE 07:01:07 11° SE 07:02:15 10° ESE daylight
29 Oct - 08:37:51 10° SW 08:42:32 54° SE 08:47:13 10° ENE daylight
29 Oct - 10:20:09 10° W 10:24:49 51° NNW 10:29:29 10° ENE daylight
29 Oct - 12:03:12 10° WNW 12:07:41 38° N 12:12:07 10° ENE daylight
29 Oct - 13:45:39 10° WNW 13:50:24 69° NNE 13:55:05 10° ESE daylight
29 Oct - 15:28:12 10° WNW 15:32:22 31° SW 15:36:28 10° SSE daylight
30 Oct - 07:22:42 10° S 07:26:35 24° SE 07:30:27 10° E daylight
30 Oct - 09:03:36 10° WSW 09:08:24 83° NNW 09:13:13 10° ENE daylight
30 Oct - 10:46:31 10° WNW 10:51:03 40° N 10:55:32 10° ENE daylight
30 Oct - 12:29:20 10° WNW 12:33:56 45° NNE 12:38:28 10° E daylight
30 Oct - 14:11:37 10° WNW 14:16:21 69° SSW 14:21:00 10° SE daylight
30 Oct - 15:55:20 10° W 15:57:52 14° SW 16:00:24 10° SSW daylight
